Location: Edisto_Beach
(32.4790°N, 80.3350°W)
Time: 13:27:19
(UTC-04:00)

Amateur Radio Satellites - All Passes

Search period start: 19 April 2014 12:57
Search period end: 20 April 2014 12:57
Location: Edisto_Beach, 32.4790°N, 80.3350°W

Satellite Date Start Highest point End Downlink Frequencies (MHz)
Time Altitude Azimuth
Uribyol 2 19 Apr 13:18:56 13:19:55 11° 63° (ENE) 13:20:54 436.500 FM
PANSAT 19 Apr 13:36:22 13:39:23 22° 198° (SSW) 13:42:23 not established
KITSAT 1 19 Apr 13:53:22 14:01:08 53° 250° (WSW) 14:08:52 435.175 FM
AO-27 19 Apr 13:55:26 13:59:41 26° 69° (ENE) 14:03:56 436.795 MHz FM
ITAMSAT 1 19 Apr 14:05:48 14:10:22 32° 70° (ENE) 14:14:56 435.822 SSB
Oscar 19 19 Apr 14:10:12 14:15:18 73° 75° (ENE) 14:20:27 437.125 CW, 437.150 USB
ISS 19 Apr 14:11:53 14:13:09 12° 126° (SE) 14:14:25 145.800 FM
AO-Echo 19 Apr 14:13:43 14:18:17 31° 71° (ENE) 14:22:47 ?
Oscar 16 19 Apr 14:18:27 14:23:34 86° 256° (WSW) 14:28:45 437.025 USB, Beacon 2401.1428
TMSAT-1 19 Apr 14:37:33 14:39:56 13° 65° (ENE) 14:42:18 436.925 FM
Uribyol 2 19 Apr 14:53:32 14:58:42 76° 257° (WSW) 15:03:52 436.500 FM
AO-7 19 Apr 15:02:01 15:04:43 12° 53° (NE) 15:07:25 29.400 - 29.500 MHz
SO-50 19 Apr 15:08:54 15:12:35 26° 111° (ESE) 15:16:17 436.795 FM
RS-15 19 Apr 15:12:12 15:20:58 26° 43° (NE) 15:29:49 29.354 - 29.394 USB, Beacon 29.352 USB
JAS-1B 19 Apr 15:17:37 15:23:56 25° 68° (ENE) 15:29:29 435.800 - 435.900 CW/SSB
Gurwin Techsat 1B 19 Apr 15:25:48 15:31:01 61° 74° (ENE) 15:36:14 435.225 FM
OPAL 19 Apr 15:27:52 15:32:29 31° 100° (E) 15:37:04 ?
AO-27 19 Apr 15:34:31 15:39:02 30° 262° (W) 15:43:33 436.795 MHz FM
ITAMSAT 1 19 Apr 15:45:43 15:49:49 24° 264° (W) 15:53:56 435.822 SSB
ISS 19 Apr 15:46:20 15:49:33 46° 319° (NW) 15:52:47 145.800 FM
AO-Echo 19 Apr 15:52:39 15:56:58 26° 263° (W) 16:01:14 ?
Uosat F 19 Apr 16:10:33 16:15:14 40° 72° (ENE) 16:19:54 435.120 FM
TMSAT-1 19 Apr 16:14:01 16:19:15 64° 259° (WSW) 16:24:30 436.925 FM
AO-7 19 Apr 16:47:49 16:56:00 70° 70° (ENE) 17:04:13 29.400 - 29.500 MHz
SO-50 19 Apr 16:49:18 16:53:02 26° 306° (NW) 16:56:48 436.795 FM
JAS-1B 19 Apr 17:05:52 17:14:13 55° 258° (WSW) 17:21:15 435.800 - 435.900 CW/SSB
OPAL 19 Apr 17:06:55 17:11:10 26° 293° (WNW) 17:15:25 ?
Gurwin Techsat 1B 19 Apr 17:09:02 17:11:18 13° 268° (W) 17:13:34 435.225 FM
RS-15 19 Apr 17:23:31 17:34:31 82° 245° (WSW) 17:45:54 29.354 - 29.394 USB, Beacon 29.352 USB
UOSAT-12 19 Apr 17:31:11 17:35:24 40° 113° (ESE) 17:39:43 437.025 FM, 437.400 FM
Uosat F 19 Apr 17:50:44 17:54:06 18° 265° (W) 17:57:29 435.120 FM
JAS-2 19 Apr 18:39:56 18:44:03 20° 69° (ENE) 18:47:56 435.800 - 435.900 CW/SSB, 435.910 FM
AO-7 19 Apr 18:43:33 18:49:15 20° 265° (W) 18:55:01 29.400 - 29.500 MHz
Hamsat 19 Apr 18:55:03 18:59:14 84° 78° (ENE) 19:03:28 145.90 MHz
UOSAT-12 19 Apr 19:12:32 19:15:42 18° 309° (NW) 19:18:56 437.025 FM, 437.400 FM
RS-15 19 Apr 19:40:06 19:45:13 14° 260° (W) 19:50:27 29.354 - 29.394 USB, Beacon 29.352 USB
STRAND 1 19 Apr 19:44:27 19:49:26 53° 101° (E) 19:54:23 ?
SO-67 19 Apr 20:14:38 20:18:02 52° 260° (W) 20:21:27 435.3500 MHz FM
JAS-2 19 Apr 20:23:08 20:28:54 44° 260° (W) 20:34:08 435.800 - 435.900 CW/SSB, 435.910 FM
Saudisat 1A 19 Apr 21:02:29 21:06:54 87° 62° (ENE) 21:11:15 436.775 MHz
HO-68 19 Apr 21:03:44 21:10:16 41° 68° (ENE) 21:16:49 435.675 MHz FM
STRAND 1 19 Apr 21:25:23 21:28:07 15° 295° (WNW) 21:30:51 ?
FUNcube-1 19 Apr 22:02:13 22:02:31 10° 67° (ENE) 22:02:48 145.950 - 145.970 MHz USB
Oscar 11 19 Apr 22:07:11 22:11:17 46° 74° (ENE) 22:15:25 145.825 FM, Beacon 2401.500 USB
MaSat-1 19 Apr 22:12:13 22:15:10 39° 293° (WNW) 22:17:46 437.345 MHz
ISS 19 Apr 22:19:06 22:21:49 22° 36° (NE) 22:24:31 145.800 FM
HO-68 19 Apr 22:51:47 22:57:56 31° 262° (W) 23:04:08 435.675 MHz FM
FUNcube-1 19 Apr 23:34:20 23:38:28 51° 260° (W) 23:42:33 145.950 - 145.970 MHz USB
Oscar 11 19 Apr 23:46:22 23:47:40 11° 267° (W) 23:48:58 145.825 FM, Beacon 2401.500 USB
ISS 19 Apr 23:55:38 23:58:32 27° 231° (SW) 00:01:25 145.800 FM
Sapphire 20 Apr 00:20:25 00:25:19 36° 109° (ESE) 00:30:15 437.095 MHz 1200 baud AX-25 AFSK
PCSat 20 Apr 01:04:41 01:10:04 77° 295° (WNW) 01:15:30 145.825 MHz
SO-50 20 Apr 01:24:14 01:28:55 80° 62° (ENE) 01:33:39 436.795 FM
Oscar 10/S400 20 Apr 01:41:25 01:56:54 26° 137° (SE) 02:21:49 145.825 - 145.975 CW/USB, Beacon 145.810 USB
Sapphire 20 Apr 02:04:22 02:08:46 25° 304° (NW) 02:13:12 437.095 MHz 1200 baud AX-25 AFSK
UOSAT-12 20 Apr 02:06:50 02:08:49 12° 48° (NE) 02:10:48 437.025 FM, 437.400 FM
AO-27 20 Apr 02:14:30 02:16:50 13° 93° (E) 02:19:11 436.795 MHz FM
KITSAT 1 20 Apr 02:21:25 02:28:41 38° 107° (ESE) 02:35:58 435.175 FM
ITAMSAT 1 20 Apr 02:24:16 02:27:31 17° 94° (E) 02:30:46 435.822 SSB
Oscar 19 20 Apr 02:26:48 02:31:37 38° 99° (E) 02:36:23 437.125 CW, 437.150 USB
AO-Echo 20 Apr 02:27:41 02:29:33 12° 93° (E) 02:31:25 ?
Oscar 16 20 Apr 02:34:58 02:40:01 50° 100° (E) 02:45:02 437.025 USB, Beacon 2401.1428
OPAL 20 Apr 02:38:33 02:42:59 33° 69° (ENE) 02:47:29 ?
Uribyol 2 20 Apr 03:11:02 03:16:08 57° 101° (E) 03:21:13 436.500 FM
UOSAT-12 20 Apr 03:44:45 03:49:27 71° 244° (WSW) 03:54:05 437.025 FM, 437.400 FM
Gurwin Techsat 1B 20 Apr 03:47:02 03:51:53 35° 98° (E) 03:56:42 435.225 FM
AO-27 20 Apr 03:51:34 03:56:38 57° 286° (WNW) 04:01:41 436.795 MHz FM
ITAMSAT 1 20 Apr 04:02:16 04:07:10 45° 288° (WNW) 04:12:04 435.822 SSB
AO-Echo 20 Apr 04:04:01 04:08:36 50° 286° (WNW) 04:13:06 ?
Oscar 19 20 Apr 04:06:49 04:10:39 21° 292° (WNW) 04:14:28 437.125 CW, 437.150 USB
Oscar 16 20 Apr 04:15:47 04:18:55 16° 294° (WNW) 04:22:02 437.025 USB, Beacon 2401.1428
KITSAT 1 20 Apr 04:16:21 04:23:54 42° 304° (NW) 04:31:31 435.175 FM
OPAL 20 Apr 04:17:58 04:21:51 23° 262° (W) 04:25:48 ?
Uosat F 20 Apr 04:23:55 04:27:17 18° 95° (E) 04:30:38 435.120 FM
TMSAT-1 20 Apr 04:34:32 04:39:51 76° 102° (ESE) 04:45:07 436.925 FM
Uribyol 2 20 Apr 04:52:25 04:55:04 14° 295° (WNW) 04:57:43 436.500 FM
AO-7 20 Apr 04:55:19 05:02:25 31° 98° (E) 05:09:28 29.400 - 29.500 MHz
JAS-1B 20 Apr 04:56:05 05:01:37 52° 101° (E) 05:07:33 435.800 - 435.900 CW/SSB
Gurwin Techsat 1B 20 Apr 05:27:30 05:31:35 23° 292° (WNW) 05:35:40 435.225 FM
RS-15 20 Apr 05:32:26 05:40:24 22° 102° (ESE) 05:48:07 29.354 - 29.394 USB, Beacon 29.352 USB
Uosat F 20 Apr 06:01:31 06:06:09 39° 288° (WNW) 06:10:47 435.120 FM
TMSAT-1 20 Apr 06:17:45 06:19:03 11° 297° (WNW) 06:20:21 436.925 FM
Hamsat 20 Apr 06:46:14 06:49:36 22° 96° (E) 06:52:58 145.90 MHz
AO-7 20 Apr 06:47:24 06:55:18 50° 293° (WNW) 07:03:12 29.400 - 29.500 MHz
JAS-1B 20 Apr 06:48:33 06:51:55 16° 295° (WNW) 06:55:22 435.800 - 435.900 CW/SSB
STRAND 1 20 Apr 06:55:54 07:00:47 48° 73° (ENE) 07:05:42 ?
JAS-2 20 Apr 07:36:09 07:40:49 27° 98° (E) 07:45:53 435.800 - 435.900 CW/SSB, 435.910 FM
RS-15 20 Apr 07:40:06 07:51:33 79° 298° (WNW) 08:02:37 29.354 - 29.394 USB, Beacon 29.352 USB
SO-67 20 Apr 07:44:52 07:46:52 15° 94° (E) 07:48:52 435.3500 MHz FM
PANSAT 20 Apr 08:12:10 08:15:13 22° 162° (SSE) 08:18:15 not established
MaSat-1 20 Apr 08:17:14 08:20:20 43° 249° (WSW) 08:24:02 437.345 MHz
Hamsat 20 Apr 08:21:55 08:25:29 25° 288° (WNW) 08:29:04 145.90 MHz
STRAND 1 20 Apr 08:37:14 08:40:10 15° 266° (W) 08:43:06 ?
Sapphire 20 Apr 09:14:47 09:17:04 13° 50° (NE) 09:19:21 437.095 MHz 1200 baud AX-25 AFSK
SO-67 20 Apr 09:17:12 09:19:57 22° 287° (WNW) 09:22:43 435.3500 MHz FM
JAS-2 20 Apr 09:20:58 09:25:51 33° 288° (WNW) 09:31:11 435.800 - 435.900 CW/SSB, 435.910 FM
PANSAT 20 Apr 09:51:24 09:55:05 42° 174° (S) 09:58:45 not established
PCSat 20 Apr 09:57:39 10:02:29 32° 58° (ENE) 10:07:17 145.825 MHz
RS-15 20 Apr 09:58:07 10:05:51 21° 322° (NW) 10:13:32 29.354 - 29.394 USB, Beacon 29.352 USB
Oscar 11 20 Apr 10:01:27 10:03:14 12° 93° (E) 10:05:01 145.825 FM, Beacon 2401.500 USB
HO-68 20 Apr 10:23:14 10:30:23 65° 103° (ESE) 10:37:29 435.675 MHz FM
Sapphire 20 Apr 10:55:41 11:01:07 81° 246° (WSW) 11:06:30 437.095 MHz 1200 baud AX-25 AFSK
Saudisat 1A 20 Apr 11:04:31 11:08:57 70° 116° (ESE) 11:13:24 436.775 MHz
FUNcube-1 20 Apr 11:27:59 11:32:02 40° 99° (E) 11:36:09 145.950 - 145.970 MHz USB
PANSAT 20 Apr 11:31:24 11:35:04 41° 187° (S) 11:38:43 not established
Oscar 11 20 Apr 11:35:27 11:39:35 43° 286° (WNW) 11:43:43 145.825 FM, Beacon 2401.500 USB
PCSat 20 Apr 11:41:12 11:45:44 28° 253° (WSW) 11:50:14 145.825 MHz
HO-68 20 Apr 12:12:27 12:17:24 21° 298° (WNW) 12:22:22 435.675 MHz FM
KITSAT 1 20 Apr 12:14:12 12:21:54 46° 57° (ENE) 12:29:32 435.175 FM
Saudisat 1A 20 Apr 12:47:30 12:49:00 11° 312° (NW) 12:50:29 436.775 MHz
